Weather History for Sarasota, FL

Change the Weather History Date:

Friday, December 14, 2012

  Actual Average Record
Temperature  
Mean Temperature 64 °F 64 °F  
Max Temperature 72 °F 73 °F 90 °F (1971)
Min Temperature 56 °F 54 °F 23 °F (1962)
Degree Days  
Heating Degree Days 1 4  
Month to date heating degree days 1 43  
Since 1 July heating degree days 42 76  
Cooling Degree Days 0 3  
Month to date cooling degree days 75 42  
Year to date cooling degree days 3799 3342  
Growing Degree Days 14 (Base 50)    
Moisture  
Dew Point 55 °F    
Average Humidity 82    
Maximum Humidity 93    
Minimum Humidity 57    
Precipitation  
Precipitation 0.00 in 0.08 in 3.07 in (2003)
Month to date precipitation 1.02 1.02  
Year to date precipitation 45.06 51.50  
Sea Level Pressure  
Sea Level Pressure 30.14 in    
Wind  
Wind Speed 9 mph (NE)    
Max Wind Speed 15 mph    
Max Gust Speed 20 mph    
Visibility 10 miles    
Events      
T = Trace of Precipitation, MM = Missing Value Source: NWS Daily Summary

Daily Weather History Graph

Daily Weather History Graph

Search for Another Location

Airport:

Trip Planner

Search our weather history database for the weather conditions in past years. The results will help you decide how hot, cold, wet, or windy it might be!

Date:

Astronomy

Dec. 14, 2012 Rise Set
Actual Time 7:12 AM EST 5:37 PM EST
Civil Twilight 6:46 AM EST 6:03 PM EST
Nautical Twilight 6:17 AM EST 6:32 PM EST
Astronomical Twilight 5:49 AM EST 7:01 PM EST
Moon 8:20 AM EST (12/14) 7:23 PM EST (12/14)
Length of Visible Light 11h 16m
Length of Day
10h 25m
Waxing Crescent, 3% of the Moon is Illuminated
Dec 14
Waxing Crescent
Dec 20
First Quarter
Dec 28
Full
Jan 4
Last Quarter
Jan 11
New

Hourly Weather History & Observations

Time (EST) Temp. Dew Point Humidity Pressure Visibility Wind Dir Wind Speed Gust Speed Precip Events Conditions
12:53 AM 57.0 °F 53.1 °F 87% 30.17 in 10.0 mi NNE 8.1 mph - N/A   Overcast
1:53 AM 57.0 °F 52.0 °F 83% 30.16 in 10.0 mi NE 9.2 mph - N/A   Overcast
2:53 AM 55.9 °F 52.0 °F 87% 30.14 in 7.0 mi NNE 11.5 mph 16.1 mph N/A   Overcast
3:07 AM 55.4 °F 51.8 °F 88% 30.14 in 9.0 mi NNE 9.2 mph - N/A   Overcast
3:53 AM 55.9 °F 52.0 °F 87% 30.15 in 10.0 mi NNE 10.4 mph - N/A   Overcast
4:53 AM 55.9 °F 53.1 °F 90% 30.14 in 10.0 mi NE 8.1 mph - N/A   Overcast
5:53 AM 55.9 °F 53.1 °F 90% 30.15 in 10.0 mi NE 8.1 mph - N/A   Overcast
6:53 AM 55.9 °F 54.0 °F 93% 30.15 in 10.0 mi NE 12.7 mph - N/A   Overcast
7:53 AM 55.9 °F 54.0 °F 93% 30.17 in 10.0 mi NE 10.4 mph - N/A   Overcast
8:53 AM 57.0 °F 55.0 °F 93% 30.19 in 10.0 mi NE 9.2 mph 16.1 mph N/A   Overcast
9:53 AM 59.0 °F 55.9 °F 90% 30.21 in 10.0 mi NE 10.4 mph 17.3 mph N/A   Overcast
10:53 AM 62.1 °F 55.9 °F 80% 30.20 in 10.0 mi NE 9.2 mph - N/A   Overcast
11:53 AM 64.0 °F 57.0 °F 78% 30.19 in 10.0 mi ENE 11.5 mph - N/A   Overcast
12:53 PM 68.0 °F 57.0 °F 68% 30.16 in 10.0 mi NE 8.1 mph - N/A   Scattered Clouds
1:53 PM 69.1 °F 57.0 °F 65% 30.12 in 10.0 mi NE 12.7 mph - N/A   Clear
2:53 PM 71.1 °F 55.9 °F 59% 30.10 in 10.0 mi ENE 11.5 mph - N/A   Clear
3:53 PM 72.0 °F 55.9 °F 57% 30.10 in 10.0 mi NE 10.4 mph - N/A   Mostly Cloudy
4:53 PM 70.0 °F 55.9 °F 61% 30.09 in 10.0 mi NE 8.1 mph - N/A   Clear
5:53 PM 64.9 °F 55.9 °F 73% 30.10 in 10.0 mi NE 5.8 mph - N/A   Clear
6:53 PM 63.0 °F 55.9 °F 78% 30.12 in 10.0 mi NE 4.6 mph - N/A   Clear
7:53 PM 61.0 °F 55.9 °F 83% 30.15 in 10.0 mi North 6.9 mph - N/A   Clear
8:53 PM 61.0 °F 57.0 °F 87% 30.15 in 10.0 mi NNE 8.1 mph - N/A   Clear
9:53 PM 61.0 °F 57.0 °F 87% 30.14 in 10.0 mi NE 8.1 mph - N/A   Clear
10:53 PM 60.1 °F 57.0 °F 90% 30.12 in 10.0 mi NE 6.9 mph - N/A   Clear
11:53 PM 57.9 °F 55.9 °F 93% 30.11 in 9.0 mi NE 5.8 mph - N/A   Clear